W11 EFTP-EFJO

Flight info

Callsign W11
Flight time 0h 36m
Altitude 35000
Route ARBEV DCT UVOVO
Aircraft LJ35/M-SGHRWXY/SB1

Departure

Time 2026-05-05 20:21
Airport Tampere-Pirkkala Airport (EFTP)

Arrival

Time 2026-05-05 20:57
Airport Joensuu Airport (EFJO)
Time Latitude Longitude Altitude Speed Heading
2026-05-05 20:14 61.41272 23.62477 383 ft 0 kts 201°
2026-05-05 20:18 61.41277 23.62444 383 ft 9 kts 334°
2026-05-05 20:18 61.41377 23.62464 383 ft 17 kts 21°
2026-05-05 20:18 61.41457 23.62535 383 ft 0 kts 24°
2026-05-05 20:19 61.41473 23.62550 383 ft 9 kts 23°
2026-05-05 20:19 61.41547 23.62614 383 ft 15 kts 22°
2026-05-05 20:19 61.41656 23.62710 380 ft 16 kts 22°
2026-05-05 20:19 61.41783 23.62827 378 ft 22 kts 20°
2026-05-05 20:20 61.41831 23.62843 374 ft 12 kts 340°
2026-05-05 20:20 61.41914 23.62714 370 ft 13 kts 315°
2026-05-05 20:20 61.41870 23.62423 371 ft 59 kts 245°
2026-05-05 20:20 61.41519 23.60886 516 ft 160 kts 244°
2026-05-05 20:21 61.40994 23.59004 2410 ft 124 kts 241°
2026-05-05 20:21 61.40438 23.57466 4138 ft 137 kts 242°
2026-05-05 20:21 61.40190 23.55453 5277 ft 166 kts 262°
2026-05-05 20:21 61.39798 23.52844 6398 ft 207 kts 256°
2026-05-05 20:22 61.39821 23.49879 7611 ft 188 kts 285°
2026-05-05 20:22 61.40483 23.47486 8031 ft 212 kts 314°
2026-05-05 20:22 61.41772 23.45636 9536 ft 237 kts 329°
2026-05-05 20:22 61.43336 23.44224 11116 ft 254 kts 340°
2026-05-05 20:23 61.45145 23.43860 12846 ft 269 kts 359°
2026-05-05 20:23 61.46968 23.44767 14548 ft 279 kts 19°
2026-05-05 20:23 61.48607 23.47019 16169 ft 288 kts 39°
2026-05-05 20:23 61.49790 23.50445 17764 ft 295 kts 63°
2026-05-05 20:24 61.50520 23.54317 19080 ft 295 kts 69°
2026-05-05 20:24 61.51248 23.58346 20229 ft 299 kts 68°
2026-05-05 20:24 61.52037 23.62511 21042 ft 315 kts 67°
2026-05-05 20:24 61.52872 23.66860 21883 ft 328 kts 67°
2026-05-05 20:25 61.53715 23.71345 22691 ft 342 kts 68°
2026-05-05 20:25 61.54593 23.76076 23481 ft 355 kts 69°
2026-05-05 20:25 61.55504 23.80940 24276 ft 360 kts 68°
2026-05-05 20:25 61.56418 23.85841 25138 ft 363 kts 70°
2026-05-05 20:26 61.57012 23.90991 25977 ft 364 kts 84°
2026-05-05 20:26 61.57492 23.96226 26804 ft 368 kts 82°
2026-05-05 20:26 61.58045 24.01518 27536 ft 373 kts 81°
2026-05-05 20:26 61.58600 24.06851 28359 ft 375 kts 82°
2026-05-05 20:27 61.59118 24.12249 29180 ft 378 kts 83°
2026-05-05 20:27 61.59622 24.17616 29942 ft 381 kts 82°
2026-05-05 20:27 61.60156 24.23094 30640 ft 384 kts 81°
2026-05-05 20:27 61.60703 24.28586 31368 ft 384 kts 81°
2026-05-05 20:28 61.61234 24.34078 32083 ft 383 kts 81°
2026-05-05 20:28 61.61752 24.39566 32771 ft 383 kts 81°
2026-05-05 20:28 61.62275 24.45059 33465 ft 384 kts 81°
2026-05-05 20:28 61.62876 24.50536 34042 ft 386 kts 72°
2026-05-05 20:29 61.63829 24.55810 34567 ft 386 kts 68°
2026-05-05 20:29 61.64777 24.61109 34765 ft 401 kts 70°
2026-05-05 20:29 61.65731 24.66775 34776 ft 422 kts 71°
2026-05-05 20:29 61.66744 24.72728 34776 ft 442 kts 70°
2026-05-05 20:30 61.67838 24.78923 34777 ft 461 kts 69°
2026-05-05 20:30 61.68977 24.85370 34777 ft 478 kts 70°
2026-05-05 20:30 61.70126 24.92064 34758 ft 494 kts 70°
2026-05-05 20:30 61.71298 24.99002 34771 ft 509 kts 70°
2026-05-05 20:31 61.72509 25.06119 34772 ft 522 kts 70°
2026-05-05 20:31 61.75006 25.20663 34777 ft 539 kts 70°
2026-05-05 20:32 61.77501 25.35547 34778 ft 520 kts 71°
2026-05-05 20:32 61.78684 25.42597 34771 ft 497 kts 70°
2026-05-05 20:32 61.79816 25.49320 34762 ft 476 kts 70°
2026-05-05 20:32 61.80897 25.55798 34755 ft 458 kts 71°
2026-05-05 20:33 61.81929 25.62054 34755 ft 442 kts 71°
2026-05-05 20:33 61.83992 25.74542 34747 ft 470 kts 71°
2026-05-05 20:33 61.85090 25.81201 34755 ft 487 kts 71°
2026-05-05 20:34 61.86213 25.88086 34737 ft 502 kts 71°
2026-05-05 20:34 61.87366 25.95191 34766 ft 516 kts 71°
2026-05-05 20:34 61.88545 26.02454 34774 ft 528 kts 71°
2026-05-05 20:35 61.90971 26.17442 34765 ft 539 kts 71°
2026-05-05 20:35 61.93349 26.32344 34768 ft 535 kts 71°
2026-05-05 20:36 61.95727 26.47305 34759 ft 534 kts 71°
2026-05-05 20:36 61.98081 26.62283 34759 ft 534 kts 72°
2026-05-05 20:37 62.00421 26.77275 34755 ft 534 kts 72°
2026-05-05 20:37 62.02727 26.92187 34740 ft 533 kts 72°
2026-05-05 20:38 62.05032 27.07212 34737 ft 534 kts 72°
2026-05-05 20:38 62.07323 27.22274 34732 ft 534 kts 72°
2026-05-05 20:39 62.09596 27.37356 34734 ft 534 kts 72°
2026-05-05 20:39 62.11840 27.52370 34735 ft 534 kts 72°
2026-05-05 20:40 62.14080 27.67502 34737 ft 534 kts 72°
2026-05-05 20:40 62.16303 27.82630 34680 ft 524 kts 73°
2026-05-05 20:40 62.17387 27.90051 33301 ft 527 kts 73°
2026-05-05 20:41 62.18470 27.97507 32230 ft 520 kts 73°
2026-05-05 20:41 62.19527 28.04826 30565 ft 518 kts 74°
2026-05-05 20:41 62.20583 28.12170 29413 ft 514 kts 74°
2026-05-05 20:41 62.21610 28.19345 28236 ft 507 kts 74°
2026-05-05 20:42 62.22616 28.26363 26143 ft 484 kts 75°
2026-05-05 20:42 62.23618 28.33441 25051 ft 491 kts 75°
2026-05-05 20:42 62.24596 28.40359 24139 ft 483 kts 75°
2026-05-05 20:42 62.25565 28.47225 23165 ft 478 kts 75°
2026-05-05 20:43 62.26519 28.54011 22200 ft 470 kts 75°
2026-05-05 20:43 62.27444 28.60626 21143 ft 459 kts 75°
2026-05-05 20:43 62.28340 28.67065 19954 ft 442 kts 75°
2026-05-05 20:43 62.29212 28.73366 19069 ft 425 kts 75°
2026-05-05 20:44 62.30033 28.79295 17408 ft 423 kts 75°
2026-05-05 20:44 62.30832 28.85128 16418 ft 383 kts 74°
2026-05-05 20:44 62.31593 28.90657 15368 ft 368 kts 74°
2026-05-05 20:44 62.32307 28.95879 13670 ft 369 kts 73°
2026-05-05 20:45 62.33666 29.05886 12549 ft 335 kts 73°
2026-05-05 20:45 62.34298 29.10541 12194 ft 315 kts 73°
2026-05-05 20:45 62.34895 29.14963 11773 ft 302 kts 73°
2026-05-05 20:46 62.35462 29.19173 11344 ft 291 kts 73°
2026-05-05 20:46 62.36016 29.23298 10910 ft 283 kts 73°
2026-05-05 20:46 62.36555 29.27306 10479 ft 275 kts 73°
2026-05-05 20:46 62.37078 29.31227 10057 ft 269 kts 73°
2026-05-05 20:47 62.37605 29.35167 9734 ft 275 kts 72°
2026-05-05 20:47 62.38131 29.39076 9730 ft 268 kts 71°
2026-05-05 20:47 62.38933 29.42643 9574 ft 266 kts 57°
2026-05-05 20:47 62.39892 29.46119 9045 ft 270 kts 58°
2026-05-05 20:48 62.40816 29.49617 8480 ft 268 kts 58°
2026-05-05 20:48 62.41719 29.53051 7927 ft 265 kts 58°
2026-05-05 20:48 62.42633 29.56489 7375 ft 263 kts 58°
2026-05-05 20:48 62.43540 29.59901 6837 ft 261 kts 58°
2026-05-05 20:49 62.44437 29.63290 6300 ft 259 kts 58°
2026-05-05 20:49 62.45328 29.66664 5757 ft 258 kts 57°
2026-05-05 20:49 62.46212 29.70013 5266 ft 255 kts 57°
2026-05-05 20:49 62.47082 29.73311 4795 ft 251 kts 57°
2026-05-05 20:50 62.47931 29.76539 4326 ft 249 kts 57°
2026-05-05 20:50 62.48783 29.79780 3847 ft 247 kts 57°
2026-05-05 20:50 62.49626 29.82995 3373 ft 245 kts 57°
2026-05-05 20:50 62.50464 29.86192 2911 ft 243 kts 57°
2026-05-05 20:51 62.51300 29.89333 2624 ft 234 kts 54°
2026-05-05 20:51 62.52345 29.91818 2615 ft 219 kts 34°
2026-05-05 20:51 62.53629 29.93491 2610 ft 214 kts 17°
2026-05-05 20:51 62.55022 29.94584 2613 ft 214 kts 14°
2026-05-05 20:52 62.56418 29.95721 2613 ft 215 kts 15°
2026-05-05 20:52 62.57796 29.96862 2618 ft 215 kts 15°
2026-05-05 20:52 62.59176 29.97995 2740 ft 210 kts 15°
2026-05-05 20:52 62.60542 29.99030 2854 ft 204 kts
2026-05-05 20:53 62.61898 29.98744 2873 ft 195 kts 332°
2026-05-05 20:53 62.62867 29.96800 2844 ft 193 kts 298°
2026-05-05 20:53 62.63132 29.93886 2593 ft 208 kts 266°
2026-05-05 20:53 62.62793 29.90745 2407 ft 217 kts 259°
2026-05-05 20:54 62.62537 29.87476 2199 ft 222 kts 267°
2026-05-05 20:54 62.62513 29.86806 2160 ft 223 kts 268°
2026-05-05 20:54 62.62546 29.83409 1986 ft 224 kts 278°
2026-05-05 20:54 62.62956 29.80196 1964 ft 214 kts 290°
2026-05-05 20:55 62.63475 29.77263 1702 ft 202 kts 290°
2026-05-05 20:55 62.63942 29.74489 1431 ft 185 kts 289°
2026-05-05 20:55 62.64334 29.72216 1177 ft 139 kts 292°
2026-05-05 20:55 62.64657 29.70371 990 ft 128 kts 287°
2026-05-05 20:56 62.64950 29.68557 816 ft 128 kts 288°
2026-05-05 20:56 62.65290 29.66729 645 ft 134 kts 289°
2026-05-05 20:56 62.65594 29.64827 473 ft 135 kts 286°
2026-05-05 20:56 62.65904 29.62978 380 ft 115 kts 292°
2026-05-05 20:57 62.66115 29.61719 388 ft 45 kts 289°
2026-05-05 20:57 62.66212 29.61239 394 ft 30 kts 290°
2026-05-05 20:57 62.66263 29.60919 395 ft 15 kts 288°
2026-05-05 20:57 62.66277 29.60828 395 ft 0 kts 282°
2026-05-05 20:58 62.66274 29.60815 395 ft 4 kts 216°
2026-05-05 20:58 62.66260 29.60842 395 ft 0 kts 127°
2026-05-05 20:58 62.66194 29.60778 394 ft 18 kts 194°
2026-05-05 20:58 62.66029 29.60755 392 ft 26 kts 177°
2026-05-05 20:59 62.65931 29.60834 389 ft 13 kts 73°
2026-05-05 20:59 62.65919 29.61050 390 ft 23 kts 98°
2026-05-05 20:59 62.65890 29.61362 388 ft 16 kts 109°
2026-05-05 20:59 62.65850 29.61560 387 ft 14 kts 142°
2026-05-05 21:00 62.65806 29.61543 386 ft 8 kts 242°
2026-05-05 21:00 62.65816 29.61440 386 ft 0 kts 231°
2026-05-05 21:00 62.65815 29.61438 386 ft 0 kts 216°